sat.trackr.live / text

‹ back to catalog

STARLINK-1531

NORAD 46572 · 2020-070AS

PAYLOAD ACTIVE UNKNOWN

§ Identity

Operator
Country
US
Launch date
2020-10-06
Launch site
AFETR
Launch vehicle
Mass (kg)
RCS (m²)

Purposes: comms

External: N2YO · Heavens-Above · Gunter

§ Orbital elements

Epoch: 2026-05-25T03:22:42.441600Z

Period
91.03 min
Inclination
53.0473°
Eccentricity
0.0007489
Mean motion
15.81914345 rev/d
Perigee alt
320.0 km
Apogee alt
330.0 km
Semi-major
6,703.2 km
B*
8.7137e-4
RAAN
120.3497°
Arg perigee
94.4936°
Mean anomaly
265.6941°
Rev number
31,205

§ Raw data

STARLINK-15311 46572U 20070AS  26145.14076900  .00183966  00000+0  87137-3 0  99992 46572  53.0473 120.3497 0007489  94.4936 265.6941 15.81914345312052

JSON: /api/v1/satellites/46572 · /tle

For live sub-satellite position, see the globe view (requires WebGL).

§ Visibility from observer

Set your observer location to see the next 7 days of passes ≥ 10°. The values pass through the URL so the page stays shareable.

No JS? Fill the form by hand. The geolocation button needs JavaScript.